C/2021 C4 ( ATLAS )

Japanese version
Home page
Updated on May 4, 2021

---------------------------------------------------------------------

* Profile

Discovery Date February 12, 2021
Magnitude 18.7 mag
Discoverer Asteroid Terrestrial-Impact Last Alert System (ATLAS) search program

* Pictures

* Orbital Elements

Epoch 2021 Jan. 26.0 TT = JDT 2459240.5
T 2021 Jan. 17.12110 TT                                 Rudenko
q   4.5044168            (2000.0)            P               Q
z  +0.0001579      Peri.  320.24162     -0.63776220     -0.74870811
 +/-0.0000574      Node   194.27673     -0.37407359     +0.09586772
e   0.9992887      Incl.  132.84196     -0.67329661     +0.65593105
From 99 observations 2021 Feb. 12-May 1, mean residual 0".4.

* Magnitudes Graph

        m1 = 8.5 + 5 log d + 10.0 log r

---------------------------------------------------------------------

The orbital elements are published on M.P.E.C. 2021-J28.
The magnitudes graphs are made with Comet for Windows.

---------------------------------------------------------------------

Copyright(C) Seiichi Yoshida (comet@aerith.net). All rights reserved.